sat.trackr.live / text

‹ back to catalog

STARLINK-37578

NORAD 69451 · 2026-127J

PAYLOAD ACTIVE UNKNOWN

§ Identity

Operator
Country
US
Launch date
2026-06-08
Launch site
AFETR
Launch vehicle
Mass (kg)
RCS (m²)

Purposes: comms

External: N2YO · Heavens-Above · Gunter

§ Orbital elements

Epoch: 2026-09-20T00:45:15.286752Z

Period
93.85 min
Inclination
53.1570°
Eccentricity
0.0000587
Mean motion
15.34402580 rev/d
Perigee alt
462.3 km
Apogee alt
463.1 km
Semi-major
6,840.8 km
B*
5.8453e-4
RAAN
167.6614°
Arg perigee
64.4331°
Mean anomaly
295.6732°
Rev number
1,612

§ Raw data

STARLINK-375781 69451U 26127J   26263.03142693  .00019426  00000+0  58453-3 0  99992 69451  53.1570 167.6614 0000587  64.4331 295.6732 15.34402580 16126

JSON: /api/v1/satellites/69451 · /tle

For live sub-satellite position, see the globe view (requires WebGL).

§ Visibility from observer

Set your observer location to see the next 7 days of passes ≥ 10°. The values pass through the URL so the page stays shareable.

No JS? Fill the form by hand. The geolocation button needs JavaScript.